www.pogodaiklimat.ru

Погода и климат >> Архив погоды >> Португалия >> Виана-ду-Каштелу


ПОГОДА в Виана-ду-Каштелу

  • Прогноз погоды в Виана-ду-Каштелу
  • Монитор погоды в Виана-ду-Каштелу

АРХИВ ПОГОДЫ в Виана-ду-Каштелу

Время (UTC), дата Ветер
(напр.,м/с)
 
Видим.   Явления Облачность Т
(С)
Тd
(С)
f
(%)
Тe
(С)
Тes
(С)
Комфортность P
(гПа)
Po
(гПа)
Тmin
(С)
Tmax
(С)
R
(мм)
R24
(мм)
S
(см)
09 15.02 12 км н/о +9.0 +4.7 74 1025.6 1019.7
12 15.02 14 км н/о +17.0 +6.7 51 1026.6 1020.9
15 15.02 12 км н/о +17.8 +8.3 54 1025.0 1019.3
18 15.02 12 км н/о +13.9 +8.2 68 1024.9 1019.1 +18.3
21 15.02 С 0 н/о н/о +9.4 +7.5 88 +9 +9 1025.5 1019.6
00 16.02 С 0 н/о н/о +8.4 +6.4 87 +8 +8 1025.4 1019.5
03 16.02 С 0 н/о н/о +7.4 +5.6 88 +6 +6 1024.2 1018.2
06 16.02 С 0 н/о н/о +6.3 +4.5 88 +5 +5 1023.8 1017.9 +5.8
09 16.02 С 0 н/о н/о +9.4 +5.7 78 +9 +9 1024.0 1018.1
12 16.02 С 0 н/о н/о +16.6 +8.8 60 +17 +17 1023.2 1017.5
15 16.02 С 0 н/о н/о +16.9 +7.1 52 +17 +17 1021.1 1015.4
18 16.02 С 0 н/о н/о +12.2 +8.6 79 +12 +12 1021.3 1015.5 +17.9
21 16.02 С 0 н/о н/о +8.1 +6.1 87 +7 +7 1022.4 1016.5
00 17.02 С 0 н/о н/о +7.2 +5.1 86 +6 +6 1021.6 1015.7
03 17.02 С 0 н/о н/о +8.2 +5.6 84 +7 +7 1021.1 1015.2
06 17.02 С 0 н/о н/о +10.7 +8.7 87 +10 +10 1021.0 1015.2 +6.9
09 17.02 С 0 н/о н/о +12.4 +10.1 86 +12 +12 1021.2 1015.4
12 17.02 С 0 н/о н/о +15.0 +10.8 76 +15 +15 1020.4 1014.6
15 17.02 С 0 н/о н/о +14.2 +10.8 80 +14 +14 1018.6 1012.8
18 17.02 С 0 н/о н/о +11.9 +10.4 91 +11 +11 1018.0 1012.2 +16.1
21 17.02 С 0 н/о н/о +10.7 +8.9 89 +10 +10 1018.1 1012.2
00 18.02 С 0 н/о н/о +9.4 +8.3 93 +9 +9 1017.8 1012.0 0.2
03 18.02 С 0 н/о н/о +8.8 +8.5 98 +8 +8 1017.5 1011.6 1
06 18.02 С 0 н/о н/о +8.4 +8.0 97 +7 +7 1017.6 1011.7 +8.2
09 18.02 10 км в посл. час дождь н/о +9.1 +8.2 94 1019.0 1013.2 0.1
12 18.02 14 км {дождь} н/о +13.4 +7.5 67 1020.1 1014.3
15 18.02 16 км н/о +14.5 +7.1 61 1019.6 1013.9
18 18.02 16 км н/о +11.2 +7.6 78 1020.3 1014.4 +14.9
21 18.02 С 0 н/о н/о +9.0 +6.7 85 +8 +8 1022.0 1016.2
00 19.02 С 0 н/о н/о +5.4 +4.9 97 +4 +4 1022.4 1016.5
03 19.02 С 0 н/о н/о +3.7 +3.3 97 +2 +2 1022.2 1016.2
06 19.02 С 0 н/о н/о +3.0 +2.9 99 +2 +2 1021.7 1015.7 +3.0
09 19.02 14 км н/о +5.1 +5.0 99 1022.4 1016.4
12 19.02 16 км н/о +12.8 +3.7 54 1021.5 1015.7
15 19.02 16 км н/о +11.5 +5.4 66 1020.1 1014.3
18 19.02 14 км н/о +9.5 +4.9 73 1020.4 1014.5 +13.0
21 19.02 С 0 н/о н/о +4.8 +3.4 91 +4 +4 1021.5 1015.5
00 20.02 С 0 н/о н/о +3.7 +3.1 96 +2 +2 1021.7 1015.7
03 20.02 С 0 н/о н/о +3.6 +2.9 95 +2 +2 1022.0 1016.0
06 20.02 С 0 н/о н/о +3.2 +2.6 96 +2 +2 1021.9 1015.9 +3.1
09 20.02 12 км н/о +4.8 +4.3 97 1022.7 1016.8
12 20.02 14 км н/о +13.8 +4.8 55 1023.3 1017.5
15 20.02 14 км н/о +13.8 +6.6 62 1022.4 1016.6
18 20.02 14 км н/о +11.4 +7.6 77 1022.6 1016.8 +14.2
21 20.02 С 0 н/о н/о +8.1 +6.2 88 +7 +7 1023.6 1017.7
00 21.02 С 0 н/о н/о +7.7 +6.9 95 +7 +7 1023.6 1017.7
03 21.02 С 0 н/о н/о +7.7 +6.7 93 +7 +7 1023.2 1017.3
06 21.02 С 0 н/о н/о +7.5 +6.2 91 +7 +7 1022.8 1016.9 +6.9
09 21.02 14 км н/о +12.0 +7.3 73 1023.6 1017.7
12 21.02 12 км н/о +18.4 +7.9 50 1024.1 1018.4
15 21.02 12 км н/о +15.9 +10.9 72 1023.3 1017.5
18 21.02 12 км н/о +13.5 +10.1 80 1025.4 1019.6 +18.6
21 21.02 С 0 н/о н/о +11.4 +9.7 89 +11 +11 1027.3 1021.5
00 22.02 С 0 н/о н/о +10.3 +8.8 90 +10 +10 1027.8 1021.9
03 22.02 С 0 н/о н/о +10.2 +7.7 84 +10 +10 1027.3 1021.4
06 22.02 С 0 н/о н/о +8.7 +6.3 85 +8 +8 1027.0 1021.1 +8.1

 

Местоположение метеостанции Виана-ду-Каштелу (Португалия): широта 41.63 долгота -8.80 высота над уровнем моря 48 м.

В архиве по умолчанию представлена погода в Виана-ду-Каштелу за последнюю неделю. Архивные данные за месяц целиком и за предыдущие месяцы, начиная с января 2011 года, Вы можете получить, выбрав интересующий диапазон дат из раскрывающегося списка и нажав кнопку "Ввод!".


*Определитесь, кто Вы:
робот инопланетянин человек

Внимание! Время в таблицах - всемирное. Для получения местного времени необходимо прибавить поправку, которая равна 0 ч.

Смотрите также архив погоды в соседних городах и на ближайших метеорологических станциях:

Погода в Порту (Португалия) (46 км)
Погода в Виго (Испания) (68 км)
Погода в Оваре (Португалия) (80 км)
Погода в Понтеведре (Испания) (90 км)
Погода в Вила-Реале (Португалия) (99 км)
Погода в Оренсе (Испания) (109 км)
Погода в Визеу (Португалия) (127 км)
Погода в Сантьяго (Испания) (145 км)
Погода в Коимбре (Португалия) (167 км)
Погода в Обсерватории Penhas Douradas (Португалия) (171 км)

Пояснения к столбцам:

Ветер - указаны скорость ветра в м/с - средняя за 10 мин, порывы в срок и между сроками (в фигурных скобках) и направление, откуда дует ветер: С - северный, СВ - северо-восточный, В - восточный, ЮВ - юго-восточный, Ю - южный, ЮЗ - юго-западный, З - западный, СЗ - северо-западный.
Видимость - горизонтальная дальность видимости в метрах или километрах. При видимости от 1 до 10 км при отсутствии осадков обычно наблюдается дымка, при ухудшении видимости до 1 км и менее - туман. В сухую погоду видимость может ухудшаться дымом, пылью или мглою.
Явления - указаны атмосферные явления, наблюдавшиеся в срок или в последний час перед сроком; фигурными скобками обозначены явления, наблюдавшиеся между сроками (за 1-3 часа до срока); квадратными скобками обозначены град или гололедные отложения с указанием их диаметра в мм.
Облачность - указаны через наклонную черту общая и нижняя облачность в баллах и высота нижней границы облаков в метрах; квадратными скобками обозначены формы облаков: Ci - перистые, Cs - перисто-слоистые, Cc - перисто-кучевые, Ac - высококучевые, As - высокослоистые, Sc - слоисто-кучевые, Ns - слоисто-дождевые, Cu - кучевые, Cb - кучево-дождевые. Подробнее классификацию облаков см. в Атласе облаков (PDF).
T - Температура воздуха - температура, измеренная на высоте 2 м над землей.
Td - Температура точки росы - температура, при понижении до которой содержащийся в воздухе водяной пар достигнет насыщения.
f - Относительная влажность воздуха - влажноcть воздуха, измеренная на высоте 2 м над землей.
Te - Эффективная температура - температура, которую ощущает одетый по сезону человек в тени. Характеристика душности погоды. При расчете учитывается влияние влажности воздуха и скорости ветра на теплоощущения человека.
Tes - Эффективная температура на солнце - температура, которую ощущает человек, с поправкой на солнечный нагрев. Характеристика знойности погоды. Зависит от высоты солнца над горизонтом, облачности и скорости ветра. Ночью, в пасмурную погоду, а также при ветре 12 м/с и более поправка равна нулю.
P - Атмосферное давление - приведенное к уровню моря атмосферное давление.
Po - Атмосферное давление - измеренное на уровне метеостанции атмосферное давление.
Tmin - Минимальная температура - минимум температуры воздуха на высоте 2 м над землей.
Tmax - Максимальная температура - максимум температуры воздуха на высоте 2 м над землей.
R - Количество осадков - Количество выпавших осадков за период времени, мм. При наведении курсора мыши на число - период времени, за который выпало указанное количество осадков.
R24 - Количество осадков - Количество выпавших осадков за 24 часа, мм.
S - Снежный покров - Высота снежного покрова, см. При наведении курсора мыши на число - состояние снежного покрова и степень покрытия местности в баллах.